Temperature
15 12 12 13 13 14 14 13 12 11 8 7 6 6 4 4 4 4 4 4 4 3 3 2 1 0 -0 -1 -1 -1 -1 -1 -1 -2 -2 -3 -3 -4 -4 -5 -6 -6 -7 -7
13 13 14 13 13 13 13 13 12 10 9 8 6 6 4 4 4 4 4 4 4 3 2 1 0 -0 -1 -1 -1 -1 -1 -2 -3 -3 -4 -4 -5 -5 -5 -6 -6 -7 -7 -8
15 13 13 14 13 14 13 13 12 11 8 7 7 6 5 4 4 4 4 4 4 3 2 1 -0 -1 -1 -1 -1 -2 -2 -3 -3 -4 -4 -4 -4 -5 -5 -6 -7 -7 -8 -9
13 13 14 13 13 13 13 13 12 10 9 7 8 7 6 3 3 3 3 3 3 2 1 0 -0 -1 -1 -2 -2 -2 -3 -3 -4 -4 -5 -5 -6 -6 -7 -7 -8 -8 -9 -9
13 13 13 13 13 13 13 12 11 10 9 8 7 6 6 3 3 2 2 3 3 2 1 0 -1 -1 -2 -2 -2 -3 -3 -4 -4 -5 -5 -6 -6 -7 -7 -8 -8 -9 -9 -10
13 13 12 12 12 12 11 10 9 7 7 9 8 6 7 3 3 2 2 2 2 1 0 -0 -1 -1 -2 -2 -3 -3 -3 -4 -5 -5 -6 -6 -7 -7 -8 -9 -9 -10 -10 -11
14 13 12 12 13 11 11 11 10 11 10 10 8 7 7 5 3 3 2 2 2 1 0 -1 -1 -2 -2 -2 -3 -3 -4 -4 -5 -6 -6 -7 -7 -8 -9 -10 -10 -11 -11 -12
13 13 12 11 12 11 11 11 11 12 10 8 8 7 6 4 3 3 3 3 1 0 -0 -1 -1 -2 -2 -3 -3 -4 -4 -5 -6 -6 -7 -7 -8 -9 -10 -10 -11 -11 -12 -12
12 12 12 11 11 12 11 9 9 8 8 7 7 7 5 2 2 1 1 1 1 0 -1 -1 -2 -2 -3 -3 -4 -4 -5 -5 -6 -6 -7 -7 -8 -9 -10 -11 -11 -12 -12 -12
11 11 11 11 11 11 10 8 7 8 10 9 8 7 7 4 1 -0 -0 0 0 -0 -1 -2 -2 -3 -3 -4 -4 -5 -5 -6 -6 -7 -7 -8 -8 -9 -10 -11 -11 -12 -12 -12
10 10 10 11 11 11 10 9 7 6 7 8 7 9 7 5 2 1 0 1 1 -0 -1 -2 -2 -3 -3 -4 -5 -5 -6 -6 -6 -7 -7 -8 -9 -9 -10 -11 -11 -12 -12 -12
8 8 9 10 10 10 10 10 7 9 8 5 5 7 5 3 3 3 2 1 0 -1 -1 -2 -2 -3 -4 -4 -5 -5 -6 -6 -7 -7 -7 -8 -9 -9 -10 -11 -12 -12 -12 -12
8 8 10 12 10 9 9 9 7 6 6 4 5 8 3 2 2 2 2 1 0 -1 -2 -2 -3 -3 -4 -4 -5 -5 -6 -6 -7 -7 -7 -8 -9 -10 -10 -11 -11 -12 -12 -12
8 7 9 12 12 10 9 8 6 6 6 5 5 6 5 2 0 0 1 1 -0 -1 -2 -2 -3 -3 -4 -5 -5 -5 -6 -6 -7 -7 -8 -8 -9 -10 -10 -11 -11 -12 -12 -12
7 7 8 7 7 8 7 7 6 6 6 6 6 5 6 3 2 2 1 0 -1 -1 -2 -2 -3 -4 -4 -5 -5 -5 -6 -6 -7 -7 -8 -8 -9 -10 -10 -11 -11 -12 -12 -12
5 7 7 7 8 7 6 6 5 5 5 5 5 6 4 2 2 1 1 0 -1 -1 -2 -2 -3 -4 -4 -5 -5 -5 -6 -6 -7 -7 -8 -8 -9 -10 -10 -11 -11 -12 -12 -12
5 7 8 7 6 7 8 8 5 5 4 5 6 6 2 0 0 1 1 1 0 -0 -1 -2 -3 -4 -4 -5 -5 -5 -6 -6 -7 -7 -8 -8 -9 -9 -10 -11 -11 -11 -12 -12
5 6 5 5 7 11 12 8 6 6 6 4 4 4 2 3 2 3 3 2 0 -1 -1 -2 -3 -4 -4 -5 -5 -6 -6 -6 -7 -7 -8 -8 -9 -9 -10 -10 -11 -11 -12 -12
5 5 5 5 7 8 9 7 6 6 7 6 4 4 2 0 0 1 2 1 0 -1 -2 -2 -3 -4 -4 -4 -5 -5 -6 -6 -7 -7 -8 -8 -9 -9 -10 -10 -11 -11 -11 -12
3 3 4 5 8 9 11 7 7 7 7 8 6 3 -1 -1 -1 1 3 1 -0 -1 -2 -2 -3 -3 -4 -4 -5 -5 -6 -6 -7 -7 -8 -8 -9 -9 -10 -10 -10 -11 -11 -12
4 4 4 4 5 7 8 6 7 9 10 10 9 6 2 1 2 4 3 1 -0 -1 -2 -2 -3 -3 -4 -4 -5 -5 -6 -6 -7 -7 -8 -8 -9 -9 -9 -10 -10 -10 -11 -11
5 4 3 3 4 8 7 5 6 9 10 10 10 9 7 6 4 3 3 1 -0 -1 -2 -2 -3 -3 -4 -4 -5 -5 -5 -6 -6 -7 -7 -8 -8 -9 -9 -9 -10 -10 -10 -11
5 6 5 6 10 10 9 11 12 11 10 10 9 9 7 5 4 3 2 1 -0 -1 -2 -2 -3 -3 -4 -4 -4 -5 -5 -6 -6 -6 -7 -7 -7 -8 -9 -9 -9 -10 -10 -10
5 5 5 4 6 9 10 11 11 11 10 10 9 8 7 6 5 3 2 1 -0 -1 -2 -2 -3 -3 -4 -4 -4 -5 -5 -5 -6 -6 -6 -7 -7 -7 -8 -8 -9 -9 -10 -11
6 3 4 4 6 9 12 14 14 12 10 9 8 7 6 5 4 3 2 1 -0 -1 -2 -2 -3 -3 -3 -4 -4 -5 -5 -5 -5 -6 -6 -6 -7 -7 -7 -8 -8 -9 -9 -11
5 5 6 10 13 11 14 15 14 12 11 10 8 6 5 5 4 3 2 1 -0 -1 -2 -2 -3 -3 -3 -4 -4 -4 -5 -5 -5 -6 -6 -6 -6 -7 -7 -7 -7 -8 -9 -9
Wind_Speed
7 7 4 1 2 1 2 4 3 2 5 6 7 6 7 9 9 9 8 8 8 6 4 3 1 2 4 5 6 6 8 9 11 7 7 7 8 7 12 15 18 19 20 20
8 4 2 2 1 2 3 2 2 0 3 3 2 4 3 7 8 9 11 10 9 6 5 3 1 2 4 5 7 7 8 8 10 9 8 6 7 7 11 14 16 18 20 19
5 1 3 3 5 4 2 2 3 3 2 2 2 5 3 3 4 5 6 7 7 8 7 4 2 2 3 5 7 8 8 8 11 13 11 10 5 4 5 6 8 17 20 20
4 4 2 4 3 3 0 1 3 4 1 3 0 6 5 5 5 6 7 7 8 6 5 3 2 1 3 5 6 7 8 7 11 13 9 9 9 9 9 7 9 17 19 19
2 2 4 3 1 1 2 1 2 3 3 2 1 2 6 3 6 9 9 8 7 7 6 3 1 1 3 5 6 7 7 7 10 12 9 8 8 7 8 8 9 10 15 17
1 0 2 0 1 1 1 4 5 5 4 3 4 4 7 6 8 7 9 9 8 7 5 3 2 2 3 5 6 6 8 8 8 9 9 9 10 10 12 12 10 10 8 13
4 2 3 2 2 5 5 4 5 6 4 5 2 4 8 4 6 7 10 10 8 7 5 3 1 2 4 6 6 7 8 9 9 9 9 10 9 9 11 12 11 12 11 10
3 4 4 3 2 1 3 4 4 3 5 7 2 6 6 0 1 2 6 8 8 7 5 3 1 1 3 6 7 8 9 9 9 9 10 9 8 7 8 10 11 12 11 11
1 4 1 1 1 2 3 3 3 5 2 5 7 8 5 2 1 3 6 8 8 7 5 3 1 1 3 5 6 7 8 9 10 10 10 9 8 9 10 10 11 10 12 16
2 4 4 2 2 4 3 7 5 3 2 6 8 7 5 7 9 8 8 9 8 7 5 4 1 1 3 4 6 7 8 8 9 9 9 11 9 11 12 11 12 11 15 18
1 2 6 3 3 3 3 4 4 4 3 3 6 8 5 7 9 12 13 10 9 8 6 4 1 1 3 5 6 7 8 8 9 9 9 10 10 11 12 10 11 13 14 17
2 3 4 5 0 2 2 4 7 3 3 4 4 8 1 3 5 8 10 9 8 7 6 4 1 2 4 5 6 7 7 8 8 8 9 10 10 10 10 12 12 15 14 17
3 3 4 6 3 1 2 4 4 5 4 5 5 9 1 1 1 5 8 9 8 7 6 3 1 2 4 5 6 7 7 8 8 8 9 10 10 10 11 12 12 15 14 14
4 3 5 6 5 3 4 5 6 6 4 6 10 13 8 6 7 7 8 9 8 7 5 4 2 3 4 5 6 7 7 7 8 8 9 9 10 11 11 11 12 13 14 12
4 2 5 8 6 4 7 9 9 10 9 10 11 10 13 8 10 10 9 9 8 7 6 5 4 3 4 5 6 6 7 7 8 8 9 9 10 10 10 11 11 12 12 14
3 1 4 6 2 3 7 11 10 10 8 10 11 16 8 1 4 8 10 11 9 8 7 6 5 4 5 5 6 6 7 8 7 8 9 9 10 10 10 11 11 12 12 13
3 1 3 6 6 7 9 8 10 8 10 10 11 10 4 4 8 11 13 12 11 9 7 7 6 5 5 5 5 6 7 7 8 8 8 9 9 10 11 12 11 12 11 12
5 3 1 4 8 6 7 2 8 8 9 11 10 7 7 6 4 5 8 11 10 9 8 7 5 5 4 3 4 5 6 7 7 8 8 9 9 10 10 10 10 10 9 11
3 5 3 1 5 10 10 4 6 6 10 9 12 9 4 5 3 3 7 9 10 9 7 6 5 4 3 4 4 5 6 6 7 8 8 9 9 10 10 10 10 9 8 10
5 4 4 3 2 7 7 3 4 3 8 7 9 8 9 9 3 6 10 10 9 8 6 6 5 3 4 4 3 4 6 7 7 8 9 9 9 9 10 10 9 7 8 9
2 3 4 5 7 11 7 5 6 2 8 4 9 10 14 13 7 3 11 10 9 8 7 6 5 4 4 3 3 5 6 7 8 8 9 9 9 9 9 8 7 9 10 11
9 7 7 6 5 10 7 10 10 11 2 6 8 9 12 9 5 8 11 11 11 9 7 7 5 5 4 3 3 5 7 7 7 8 9 9 9 9 9 9 9 9 9 10
9 10 7 12 11 5 11 11 8 5 7 7 8 9 12 9 9 10 10 10 10 9 8 6 6 5 4 4 4 6 6 7 8 8 9 9 10 8 8 8 9 9 8 8
6 6 6 8 14 11 12 12 9 9 8 8 9 10 14 11 12 12 11 11 10 9 8 6 6 5 5 5 5 6 7 6 7 9 9 9 9 9 8 7 7 8 8 9
8 9 6 9 12 10 10 13 13 10 8 7 8 10 14 13 12 13 12 12 11 9 7 6 6 6 6 5 5 6 5 5 7 8 8 9 9 9 9 9 7 9 8 11
9 11 10 12 11 9 8 6 10 12 12 13 12 10 9 11 14 14 12 11 10 9 8 7 7 7 6 5 6 6 5 5 6 7 8 7 8 8 9 9 10 14 14 18
Wind_Direction
19 59 52 350 211 220 161 187 237 255 160 173 215 229 202 184 182 186 194 198 199 189 166 152 142 349 337 330 333 343 355 355 357 352 347 338 334 327 328 334 335 333 332 332
40 54 337 330 360 157 152 161 203 105 115 173 225 255 213 186 197 196 195 199 195 178 176 187 204 334 330 330 338 351 356 348 349 343 330 318 313 309 316 323 324 329 330 329
115 250 311 84 52 73 88 169 215 214 84 78 9 299 186 185 177 185 197 198 189 187 190 201 231 303 330 338 344 352 344 339 339 338 333 331 313 301 316 323 323 329 329 327
72 349 64 83 57 52 272 216 179 154 131 291 329 298 247 197 194 200 200 193 189 183 177 191 218 308 341 341 343 343 336 332 335 340 338 338 343 335 327 324 320 324 325 324
57 18 57 70 353 340 245 50 125 152 161 320 254 232 287 167 230 227 211 200 189 178 172 174 156 39 5 349 341 336 332 328 335 339 336 332 326 317 318 320 317 319 322 322
114 86 79 300 333 36 105 81 68 64 77 299 222 188 277 212 216 218 201 192 182 171 163 145 94 40 357 345 339 337 336 332 333 335 331 327 321 322 326 328 326 326 323 321
1 36 17 1 49 19 54 63 12 354 352 270 180 216 256 232 216 206 192 185 174 166 159 148 80 1 341 340 341 340 339 333 331 330 327 322 317 318 321 325 327 327 326 325
5 311 350 20 91 70 36 102 122 274 277 296 286 247 262 174 23 160 158 155 155 161 160 155 141 337 329 338 341 339 335 329 328 328 324 316 317 323 323 322 323 321 321 318
30 284 340 55 109 130 102 101 140 148 301 289 282 281 297 123 114 129 139 150 168 171 165 161 155 337 337 339 336 331 328 326 324 323 322 319 325 325 323 321 319 318 319 322
131 290 300 324 105 41 76 143 100 112 308 296 295 285 265 226 225 207 192 187 185 174 168 164 173 325 335 333 326 327 325 320 315 319 324 336 327 324 323 322 321 321 321 321
165 223 308 344 195 202 131 110 110 116 161 213 291 280 227 221 212 206 203 191 182 178 175 177 199 316 334 331 327 324 322 318 318 321 323 325 323 323 324 323 322 323 322 323
94 125 286 271 213 82 173 186 156 173 227 196 230 272 330 245 226 196 187 178 172 169 166 170 185 331 332 325 322 320 316 316 316 319 323 324 322 323 324 324 324 326 325 326
133 106 343 345 354 9 225 191 163 132 133 176 211 266 140 68 162 174 170 166 164 163 165 170 210 310 312 312 313 312 312 314 316 322 324 323 323 326 325 324 325 328 328 327
112 155 198 239 261 239 232 204 168 152 189 225 231 259 271 225 217 196 177 169 166 173 177 189 228 274 291 299 303 305 310 315 322 326 324 323 324 324 323 324 327 329 329 329
108 230 254 260 265 240 240 228 198 199 205 217 246 251 269 242 216 198 178 169 173 187 196 205 224 255 280 294 300 305 311 317 324 325 323 321 320 321 323 326 327 328 331 334
96 245 320 295 235 268 266 244 219 222 224 238 265 275 273 279 146 161 173 179 190 200 204 209 222 244 267 281 294 307 312 316 320 318 316 318 324 326 327 327 328 330 332 332
123 75 347 291 308 320 284 241 189 209 213 202 228 247 176 192 192 189 188 190 196 198 200 206 218 235 253 268 284 298 302 309 315 313 315 319 322 325 326 328 331 331 329 330
133 117 111 310 351 300 255 139 178 216 244 219 239 247 201 209 186 188 183 187 193 191 192 199 209 228 245 260 283 295 301 310 312 312 314 317 321 321 321 323 326 325 323 328
129 137 119 35 313 283 294 222 180 207 278 222 226 238 149 109 73 270 205 187 187 185 183 190 199 211 234 264 287 305 309 313 313 313 315 316 317 317 319 321 321 319 320 322
60 96 121 137 251 260 260 159 161 100 286 236 194 186 157 143 181 248 185 171 168 166 166 177 186 201 236 260 292 304 306 310 309 311 311 310 311 313 313 312 313 313 317 321
113 111 161 185 234 265 250 151 141 177 256 206 181 175 170 187 202 177 151 155 159 163 169 171 180 207 234 258 288 294 298 297 300 306 308 308 309 308 304 308 310 313 320 322
179 173 193 169 213 260 189 147 187 218 191 178 184 178 182 185 137 142 154 158 162 166 172 175 188 219 239 250 260 284 289 291 303 309 310 308 307 308 319 313 312 313 314 316
200 195 188 195 222 246 179 204 218 182 194 199 190 185 168 161 168 164 167 168 171 174 179 180 192 220 248 246 240 270 281 300 311 314 312 310 311 308 309 309 311 315 314 314
237 186 200 247 262 249 226 235 232 203 208 200 183 169 168 172 172 170 172 177 179 181 183 181 189 216 242 247 251 256 279 298 309 311 311 313 314 314 314 315 316 317 315 313
217 171 211 254 271 286 259 229 224 206 195 174 168 173 176 168 171 176 179 183 184 185 182 182 195 216 234 247 261 271 281 298 308 310 311 316 318 316 319 323 317 318 310 317
190 183 192 235 228 211 243 226 190 187 194 184 171 171 177 176 176 176 182 181 179 180 179 188 202 219 231 240 259 270 277 288 301 313 318 318 318 324 326 324 324 328 332 333
Height
1572 1578 1585 1584 1584 1585 1586 1590 1591 1593 1594 1598 1600 1600 1600 1601 1603 1604 1606 1606 1607 1608 1608 1608 1606 1604 1601 1597 1593 1588 1584 1579 1574 1568 1562 1557 1551 1547 1542 1536 1531 1525 1519 1513
1580 1585 1584 1583 1582 1583 1586 1589 1592 1594 1595 1597 1599 1599 1598 1599 1599 1600 1602 1603 1605 1606 1606 1606 1605 1602 1599 1595 1591 1586 1582 1577 1572 1566 1560 1555 1549 1544 1538 1533 1528 1522 1516 1510
1581 1586 1583 1583 1585 1584 1587 1588 1590 1593 1596 1598 1599 1597 1598 1598 1598 1600 1601 1602 1603 1604 1605 1604 1603 1600 1597 1593 1589 1584 1580 1575 1570 1564 1558 1552 1546 1540 1534 1528 1523 1518 1512 1507
1585 1584 1583 1584 1586 1586 1587 1586 1588 1592 1597 1600 1599 1602 1593 1596 1597 1597 1598 1599 1600 1602 1603 1602 1601 1598 1595 1591 1587 1583 1578 1573 1568 1562 1556 1549 1543 1536 1531 1525 1519 1514 1509 1503
1586 1585 1585 1586 1586 1586 1586 1586 1588 1591 1595 1600 1601 1604 1593 1596 1597 1595 1594 1595 1598 1600 1601 1600 1599 1596 1593 1589 1585 1581 1577 1572 1566 1561 1555 1548 1542 1535 1529 1522 1516 1510 1505 1499
1586 1585 1585 1586 1585 1585 1586 1589 1593 1598 1601 1600 1596 1604 1589 1595 1590 1588 1589 1592 1595 1597 1598 1598 1596 1594 1591 1587 1584 1580 1575 1570 1564 1558 1552 1546 1539 1532 1525 1519 1512 1506 1500 1495
1587 1586 1586 1586 1585 1587 1588 1593 1599 1596 1599 1596 1595 1597 1588 1584 1584 1583 1585 1588 1592 1595 1596 1595 1594 1592 1589 1586 1582 1577 1573 1567 1562 1556 1550 1544 1537 1530 1524 1517 1510 1503 1497 1491
1592 1593 1588 1587 1587 1590 1590 1592 1602 1604 1605 1602 1595 1595 1584 1583 1582 1582 1583 1587 1590 1592 1593 1593 1591 1589 1587 1583 1580 1575 1570 1565 1560 1554 1548 1542 1535 1529 1523 1516 1510 1503 1496 1489
1595 1593 1588 1587 1587 1588 1590 1597 1597 1606 1607 1609 1597 1589 1581 1583 1583 1583 1583 1586 1588 1590 1590 1590 1589 1587 1584 1581 1577 1573 1568 1563 1558 1552 1546 1540 1534 1527 1521 1515 1508 1502 1495 1488
1595 1597 1590 1588 1588 1589 1590 1596 1603 1606 1605 1605 1596 1589 1581 1580 1581 1582 1582 1583 1585 1587 1588 1587 1586 1585 1582 1579 1575 1571 1567 1561 1556 1550 1544 1538 1532 1526 1519 1513 1506 1500 1493 1486
1595 1599 1593 1590 1589 1589 1593 1596 1601 1609 1608 1609 1606 1585 1573 1572 1573 1575 1576 1579 1582 1584 1585 1585 1584 1582 1580 1577 1573 1569 1565 1560 1554 1549 1543 1536 1530 1524 1518 1511 1505 1498 1491 1485
1597 1601 1599 1592 1590 1589 1590 1591 1599 1602 1604 1612 1615 1588 1572 1570 1568 1569 1572 1576 1579 1581 1582 1582 1581 1580 1577 1574 1571 1567 1562 1557 1552 1547 1541 1535 1529 1523 1516 1510 1503 1497 1490 1484
1597 1600 1599 1591 1594 1592 1591 1591 1594 1600 1606 1614 1611 1582 1571 1569 1568 1568 1570 1573 1576 1578 1579 1579 1578 1577 1575 1572 1569 1565 1560 1556 1551 1545 1540 1534 1527 1521 1515 1508 1502 1496 1489 1482
1596 1600 1600 1593 1588 1588 1589 1590 1594 1597 1602 1605 1598 1576 1566 1568 1567 1567 1569 1571 1573 1575 1576 1576 1576 1574 1572 1570 1566 1563 1559 1554 1549 1544 1538 1532 1526 1520 1514 1508 1502 1495 1489 1482
1595 1599 1596 1593 1590 1590 1588 1587 1589 1592 1590 1590 1578 1574 1560 1560 1561 1562 1565 1568 1570 1572 1573 1573 1573 1571 1570 1567 1565 1561 1557 1553 1548 1543 1537 1531 1525 1520 1514 1507 1501 1495 1489 1482
1596 1598 1597 1592 1587 1588 1587 1582 1584 1585 1584 1581 1575 1567 1555 1556 1556 1558 1561 1564 1566 1568 1570 1570 1570 1569 1567 1565 1562 1559 1555 1551 1546 1541 1536 1530 1524 1519 1513 1507 1501 1495 1488 1482
1598 1598 1596 1594 1590 1585 1578 1569 1575 1574 1572 1570 1567 1557 1554 1555 1554 1555 1557 1560 1562 1565 1566 1567 1567 1566 1564 1562 1560 1556 1553 1549 1545 1540 1535 1529 1523 1518 1512 1506 1500 1494 1488 1482
1597 1599 1602 1602 1592 1580 1562 1562 1563 1564 1560 1559 1554 1551 1551 1551 1552 1553 1555 1557 1559 1562 1563 1564 1564 1563 1562 1560 1557 1555 1551 1548 1543 1539 1534 1528 1522 1517 1511 1505 1500 1494 1488 1482
1594 1598 1603 1605 1598 1584 1564 1560 1562 1563 1556 1547 1548 1546 1549 1549 1551 1551 1552 1554 1557 1559 1560 1561 1561 1560 1559 1558 1555 1553 1550 1546 1542 1537 1532 1527 1521 1516 1510 1504 1499 1493 1488 1482
1596 1598 1604 1606 1596 1584 1558 1558 1557 1560 1556 1541 1541 1542 1545 1549 1554 1547 1547 1550 1553 1555 1557 1557 1558 1558 1557 1555 1553 1551 1548 1544 1540 1535 1530 1525 1520 1515 1510 1504 1499 1493 1488 1482
1598 1601 1604 1604 1600 1575 1554 1555 1558 1562 1547 1537 1536 1537 1539 1541 1542 1543 1544 1547 1550 1552 1554 1555 1555 1555 1554 1553 1551 1549 1546 1542 1538 1534 1529 1525 1520 1514 1509 1504 1499 1493 1488 1482
1588 1595 1599 1602 1600 1572 1549 1552 1552 1542 1533 1533 1533 1533 1534 1536 1538 1540 1542 1544 1547 1549 1550 1552 1552 1552 1552 1551 1549 1547 1544 1541 1537 1533 1528 1524 1519 1514 1508 1503 1498 1492 1487 1481
1575 1571 1572 1572 1557 1540 1538 1534 1532 1531 1530 1530 1530 1530 1531 1533 1535 1537 1539 1542 1544 1546 1548 1549 1549 1549 1549 1548 1547 1545 1542 1539 1535 1531 1527 1522 1518 1513 1507 1501 1496 1490 1485 1480
1562 1560 1562 1559 1540 1532 1530 1529 1527 1527 1526 1526 1526 1527 1528 1529 1532 1534 1536 1539 1541 1543 1545 1546 1546 1547 1546 1546 1544 1542 1540 1537 1533 1530 1525 1521 1516 1511 1506 1500 1495 1489 1483 1478
1550 1554 1555 1549 1533 1526 1520 1519 1519 1520 1520 1521 1522 1523 1525 1527 1528 1531 1533 1535 1537 1540 1542 1543 1543 1544 1544 1543 1542 1540 1538 1535 1532 1528 1524 1520 1515 1509 1504 1499 1494 1488 1483 1479
1537 1539 1542 1531 1519 1519 1515 1514 1514 1514 1514 1515 1517 1518 1520 1523 1525 1527 1529 1532 1534 1536 1538 1539 1540 1541 1541 1540 1539 1538 1536 1533 1530 1526 1522 1518 1513 1508 1503 1498 1493 1490 1484 1479